Home   Weather   Glendale   Past weeks

Flag for USA Past Weather in Glendale, California, USA — Yesterday and Last 2 Weeks

Now
64 °F

Sunny.


Feels Like: 64 °F
Forecast: 58 / 77 °F
Wind: 7 mph from South

Location: Bob Hope Airport

Current Time: May 29, 2017 at 8:27:42 pm

Latest Report: May 29, 2017 at 7:53 pm


Visibility: 10 mi

Pressure: 29.83 "Hg

Humidity: 70%

Dew Point: 54 °F

Location of GlendaleLocation

Past Weather in Glendale — Graph

°F

Glendale Temperature Yesterday

Maximum temperature yesterday: 79 °F (at 12:53 pm)
Minimum temperature yesterday: 56 °F (at 5:53 am)
Average temperature yesterday: 67 °F

High & Low Weather Summary for the Past Weeks

 TemperatureHumidityPressure
High93 °F (May 20, 1:53 pm)90% (May 24, 6:53 am)30.03 "Hg (May 24, 6:53 am)
Low50 °F (May 16, 4:53 am)7% (May 20, 1:53 pm)29.75 "Hg (May 24, 5:53 pm)
Average66 °F56%29.89 "Hg
* Reported May 14 6:53 pm — May 29 6:53 pm, Glendale. Weather by CustomWeather, © 2017

Note: Actual official high and low records may vary slightly from our data, if they occured in-between our weather recording intervals... More about our weather records

Advertising

Glendale Weather History for the Previous 24 Hours

Scroll right to see more
 ConditionsComfort  
Time TempWeatherWind HumidityBarometerVisibility
6:53 pm
Mon, May 29
68 °FSunny.10 mph61%29.82 "Hg10 mi
5:53 pm70 °FSunny.10 mph57%29.82 "Hg10 mi
4:53 pm72 °FSunny.12 mph55%29.81 "Hg10 mi
3:53 pm74 °FSunny.13 mph52%29.82 "Hg10 mi
2:53 pm76 °FSunny.12 mph48%29.83 "Hg10 mi
1:53 pm74 °FSunny.12 mph52%29.85 "Hg9 mi
12:53 pm74 °FSunny.5 mph52%29.87 "Hg10 mi
11:53 am70 °FSunny.8 mph59%29.88 "Hg10 mi
10:53 am66 °FSunny.7 mph65%29.88 "Hg10 mi
9:53 am64 °FSunny.5 mph70%29.88 "Hg10 mi
8:53 am60 °FScattered clouds.3 mph78%29.90 "Hg10 mi
7:53 am57 °FLow clouds.5 mph87%29.90 "Hg7 mi
6:53 am57 °FLow clouds.6 mph87%29.89 "Hg7 mi
5:53 am56 °FLow clouds.3 mph90%29.88 "Hg8 mi
5:08 am57 °FPassing clouds.3 mph87%29.91 "Hg10 mi
4:28 am58 °FPassing clouds.6 mph84%29.91 "Hg10 mi
3:53 am58 °FClear.6 mph84%29.88 "Hg10 mi
2:53 am59 °FClear.6 mph81%29.89 "Hg10 mi
1:53 am60 °FClear.6 mph78%29.90 "Hg10 mi
12:53 am61 °FClear.6 mph75%29.92 "Hg10 mi
11:53 pm
Sun, May 28
62 °FClear.6 mph73%29.92 "Hg10 mi
10:53 pm63 °FClear.7 mph68%29.93 "Hg10 mi
9:53 pm64 °FClear.7 mph65%29.93 "Hg10 mi
8:53 pm65 °FClear.7 mph63%29.92 "Hg10 mi
Weather by CustomWeather, © 2017

See weather overviewHow to use our weather pages